Вернуться в каталог

DELTA 1 DEB

АктивенPO
NORAD 21549·DEBRIS·🇺🇸 United States

Запущен Jun 12, 1975 с Vandenberg Space Force Base

Loading…

Ближайшие Пролёты (ближайшие 24 часа)

TLE

СвежийSource: Space-Track

Эпоха: Sep 14, 2026, 10:42 UTC

1 21549U 75052HD  26257.44593350  .00000303  00000-0  89293-3 0  9995
2 21549  99.7918 236.8077 0204697  41.4445 108.3224 13.09537433684904

Отслеживайте DELTA 1 DEB в реальном времени с AllMySat

Download on the App Store